TimeEDT,TemperatureF,Dew PointF,Humidity,Sea Level PressureIn,VisibilityMPH,Wind Direction,Wind SpeedMPH,Gust SpeedMPH,PrecipitationIn,Events,Conditions,WindDirDegrees,DateUTC
12:15 AM,53.6,51.8,94,30.13,10.0,NNE,10.4,26.5,N/A,,Mostly Cloudy,30,2012-10-08 04:15:00
12:35 AM,53.6,51.8,94,30.13,10.0,NE,10.4,-,N/A,,Overcast,40,2012-10-08 04:35:00
12:55 AM,53.6,51.8,94,30.14,10.0,NE,12.7,16.1,N/A,,Overcast,40,2012-10-08 04:55:00
1:15 AM,53.6,51.8,94,30.13,10.0,NE,13.8,23.0,N/A,,Overcast,50,2012-10-08 05:15:00
1:35 AM,53.6,51.8,94,30.14,10.0,NE,15.0,18.4,N/A,,Overcast,50,2012-10-08 05:35:00
1:55 AM,53.6,50.0,88,30.14,10.0,NNE,15.0,19.6,N/A,,Overcast,30,2012-10-08 05:55:00
2:15 AM,53.6,50.0,88,30.14,10.0,NNE,13.8,-,N/A,,Overcast,30,2012-10-08 06:15:00
2:35 AM,53.6,51.8,94,30.14,10.0,NE,9.2,-,N/A,,Overcast,40,2012-10-08 06:35:00
2:55 AM,53.6,51.8,94,30.13,10.0,North,11.5,-,N/A,,Overcast,10,2012-10-08 06:55:00
3:15 AM,53.6,51.8,94,30.13,10.0,NNE,13.8,-,N/A,,Overcast,20,2012-10-08 07:15:00
3:35 AM,53.6,50.0,88,30.13,10.0,North,15.0,24.2,N/A,,Overcast,10,2012-10-08 07:35:00
3:55 AM,53.6,50.0,88,30.12,10.0,North,18.4,26.5,N/A,,Overcast,10,2012-10-08 07:55:00
4:15 AM,53.6,50.0,88,30.11,10.0,NNE,17.3,26.5,N/A,,Mostly Cloudy,20,2012-10-08 08:15:00
4:35 AM,53.6,50.0,88,30.10,10.0,NNE,17.3,24.2,N/A,,Mostly Cloudy,30,2012-10-08 08:35:00
4:55 AM,53.6,50.0,88,30.11,10.0,NNE,17.3,23.0,N/A,,Mostly Cloudy,30,2012-10-08 08:55:00
5:15 AM,53.6,50.0,88,30.11,10.0,NE,17.3,28.8,N/A,,Mostly Cloudy,40,2012-10-08 09:15:00
5:35 AM,53.6,50.0,88,30.12,10.0,NE,18.4,25.3,N/A,,Mostly Cloudy,50,2012-10-08 09:35:00
5:55 AM,53.6,50.0,88,30.13,10.0,NE,15.0,23.0,N/A,,Scattered Clouds,50,2012-10-08 09:55:00
6:15 AM,53.6,50.0,88,30.13,10.0,NE,15.0,21.9,N/A,,Mostly Cloudy,40,2012-10-08 10:15:00
6:35 AM,53.6,50.0,88,30.14,10.0,NNE,15.0,23.0,N/A,,Overcast,30,2012-10-08 10:35:00
6:55 AM,53.6,50.0,88,30.14,10.0,NNE,15.0,25.3,N/A,,Overcast,20,2012-10-08 10:55:00
7:15 AM,53.6,50.0,88,30.15,10.0,NNE,16.1,26.5,N/A,,Overcast,20,2012-10-08 11:15:00
7:35 AM,53.6,50.0,88,30.15,10.0,NNE,15.0,25.3,N/A,,Overcast,20,2012-10-08 11:35:00
7:55 AM,53.6,50.0,88,30.17,10.0,NNE,10.4,21.9,N/A,,Overcast,30,2012-10-08 11:55:00
8:15 AM,53.6,50.0,88,30.17,10.0,ENE,16.1,21.9,N/A,,Overcast,60,2012-10-08 12:15:00
8:35 AM,53.6,50.0,88,30.17,10.0,NE,15.0,20.7,N/A,,Overcast,50,2012-10-08 12:35:00
8:55 AM,53.6,50.0,88,30.17,10.0,NE,13.8,25.3,N/A,,Overcast,50,2012-10-08 12:55:00
9:15 AM,53.6,48.2,82,30.17,10.0,NE,20.7,29.9,N/A,,Overcast,40,2012-10-08 13:15:00
9:35 AM,55.4,48.2,77,30.17,10.0,ENE,21.9,33.4,N/A,,Overcast,70,2012-10-08 13:35:00
9:55 AM,53.6,46.4,77,30.16,10.0,ENE,27.6,36.8,N/A,,Overcast,60,2012-10-08 13:55:00
10:15 AM,51.8,48.2,88,30.17,2.5,ENE,26.5,38.0,0.06,Rain,Rain,60,2012-10-08 14:15:00
10:35 AM,51.8,48.2,88,30.18,1.5,NE,10.4,27.6,0.22,Rain,Rain,40,2012-10-08 14:35:00
10:55 AM,51.8,50.0,94,30.18,2.0,NNE,13.8,-,0.28,Rain,Heavy Rain,20,2012-10-08 14:55:00
11:15 AM,51.8,50.0,94,30.17,9.0,NE,20.7,28.8,0.02,,Mostly Cloudy,40,2012-10-08 15:15:00
11:35 AM,50.0,50.0,100,30.16,0.8,NE,20.7,28.8,0.40,Rain,Light Rain,40,2012-10-08 15:35:00
11:55 AM,50.0,50.0,100,30.17,9.0,NNE,20.7,27.6,0.41,Rain,Rain,30,2012-10-08 15:55:00
12:15 PM,50.0,50.0,100,30.17,2.5,NNE,15.0,25.3,0.03,Rain,Light Rain,20,2012-10-08 16:15:00
12:35 PM,50.0,50.0,100,30.17,1.0,North,13.8,31.1,0.29,Rain,Light Rain,10,2012-10-08 16:35:00
12:55 PM,50.0,50.0,100,30.18,10.0,NNE,17.3,31.1,0.31,Rain,Rain,30,2012-10-08 16:55:00
1:15 PM,51.8,51.8,100,30.17,9.0,North,18.4,24.2,N/A,,Light Drizzle,10,2012-10-08 17:15:00
1:55 PM,50.0,50.0,100,30.15,1.0,North,6.9,28.8,0.17,Rain,Rain,350,2012-10-08 17:55:00
2:15 PM,51.8,51.8,100,30.14,5.0,NNE,13.8,-,0.02,,Light Drizzle,30,2012-10-08 18:15:00
2:35 PM,51.8,51.8,100,30.13,8.0,North,19.6,32.2,0.02,,Light Drizzle,10,2012-10-08 18:35:00
2:55 PM,51.8,51.8,100,30.11,9.0,NNE,23.0,32.2,0.02,,Overcast,20,2012-10-08 18:55:00
3:15 PM,51.8,51.8,100,30.11,10.0,NNE,23.0,36.8,N/A,,Overcast,20,2012-10-08 19:15:00
3:35 PM,51.8,50.0,94,30.11,10.0,NE,16.1,32.2,N/A,,Overcast,40,2012-10-08 19:35:00
3:55 PM,51.8,50.0,94,30.11,10.0,NE,18.4,31.1,N/A,,Overcast,50,2012-10-08 19:55:00
4:15 PM,51.8,50.0,94,30.11,10.0,North,16.1,-,N/A,,Overcast,10,2012-10-08 20:15:00
4:35 PM,51.8,50.0,94,30.11,10.0,North,17.3,20.7,N/A,,Overcast,360,2012-10-08 20:35:00
4:55 PM,51.8,48.2,88,30.12,10.0,North,18.4,25.3,N/A,,Overcast,10,2012-10-08 20:55:00
5:15 PM,51.8,48.2,88,30.12,10.0,NNE,13.8,18.4,N/A,,Overcast,20,2012-10-08 21:15:00
5:35 PM,51.8,48.2,88,30.12,10.0,NNE,18.4,24.2,N/A,,Overcast,20,2012-10-08 21:35:00
5:55 PM,51.8,48.2,88,30.12,10.0,NNE,12.7,18.4,N/A,,Overcast,20,2012-10-08 21:55:00
6:15 PM,51.8,48.2,88,30.13,10.0,North,15.0,20.7,N/A,,Overcast,10,2012-10-08 22:15:00
6:35 PM,51.8,48.2,88,30.13,10.0,NNE,12.7,-,N/A,,Overcast,20,2012-10-08 22:35:00
6:55 PM,50.0,48.2,94,30.13,10.0,North,12.7,-,N/A,,Overcast,360,2012-10-08 22:55:00
7:15 PM,50.0,48.2,94,30.14,10.0,North,15.0,25.3,N/A,,Overcast,10,2012-10-08 23:15:00
7:55 PM,50.0,48.2,94,30.13,6.0,NNE,12.7,19.6,N/A,,Overcast,20,2012-10-08 23:55:00
8:15 PM,50.0,48.2,94,30.13,7.0,NNE,12.7,18.4,N/A,,Overcast,20,2012-10-09 00:15:00
8:35 PM,50.0,48.2,94,30.14,9.0,North,17.3,23.0,N/A,,Overcast,10,2012-10-09 00:35:00
9:15 PM,48.2,48.2,100,30.14,10.0,North,12.7,19.6,N/A,,Overcast,360,2012-10-09 01:15:00
9:35 PM,48.2,48.2,100,30.15,10.0,North,12.7,-,N/A,,Overcast,350,2012-10-09 01:35:00
10:15 PM,48.2,48.2,100,30.15,5.0,North,15.0,27.6,N/A,,Overcast,360,2012-10-09 02:15:00
10:35 PM,48.2,48.2,100,30.15,7.0,North,10.4,20.7,N/A,,Overcast,10,2012-10-09 02:35:00
10:55 PM,48.2,48.2,100,30.15,6.0,North,18.4,-,N/A,,Overcast,360,2012-10-09 02:55:00
11:15 PM,48.2,48.2,100,30.15,4.0,North,15.0,23.0,N/A,,Overcast,350,2012-10-09 03:15:00